Temperature
18 18 18 18 18 18 18 18 18 18 18 18 18 18 18 18 18 18 18 18 18 18 18 18 18 18 18 18 18 18 18 18 18 18 17 17 17 17 17 17 17 17 17
18 18 18 18 18 18 18 18 18 18 18 18 18 18 18 18 18 18 18 18 18 18 18 18 18 18 18 18 18 18 18 18 18 18 18 17 17 17 17 17 17 17 17
18 18 18 18 18 18 18 18 18 18 18 18 18 18 18 18 18 18 18 18 18 18 18 18 18 18 18 18 18 18 18 18 18 18 18 17 17 17 17 17 17 17 17
18 18 18 18 18 18 18 18 18 18 18 19 18 18 18 18 18 18 18 18 18 18 18 18 18 18 18 18 18 18 18 18 18 18 18 17 17 17 17 17 17 17 17
18 18 18 18 18 18 18 18 18 18 18 19 18 18 18 18 18 18 18 18 18 18 18 18 18 18 18 18 18 18 17 17 18 18 18 17 17 17 17 17 17 17 17
18 18 18 18 18 18 18 18 18 18 18 19 18 18 18 18 18 18 18 18 18 18 18 18 18 18 18 18 18 17 18 18 18 18 17 17 17 17 17 17 17 17 17
19 18 19 19 19 19 19 18 18 19 18 19 18 18 18 18 18 18 18 18 18 18 18 18 18 18 18 18 18 18 18 18 18 17 17 17 17 17 17 17 17 17 17
19 19 19 19 19 19 19 19 19 19 19 19 19 18 18 18 18 18 18 18 18 18 18 18 18 18 18 18 18 18 18 18 17 17 17 17 17 17 17 17 17 17 17
19 19 19 19 19 19 19 19 19 19 19 19 18 18 18 18 18 18 18 18 18 18 18 18 18 18 18 18 18 18 17 17 17 17 17 17 17 17 17 17 17 17 17
19 19 19 19 19 19 19 19 19 19 19 19 18 18 18 18 18 18 18 18 18 18 18 18 18 18 18 18 18 18 17 17 17 17 17 17 17 17 17 17 17 17 17
19 19 19 19 19 19 19 19 19 19 19 19 18 18 18 18 18 18 18 18 18 18 18 18 18 18 18 18 18 17 17 17 17 17 17 17 17 17 17 17 17 17 17
19 19 19 19 19 19 19 19 19 19 19 19 19 18 18 18 18 18 18 18 18 18 18 18 18 18 18 18 18 17 18 17 17 17 17 17 17 17 17 17 17 17 17
19 19 19 19 19 19 19 19 19 19 19 19 19 18 18 18 18 18 18 18 18 18 18 18 18 18 18 18 18 17 17 17 17 17 17 17 17 17 17 17 17 17 17
19 19 19 19 19 19 19 19 19 19 19 18 18 18 18 18 18 18 18 18 18 18 18 18 18 18 18 18 17 17 17 18 17 17 17 17 17 17 17 17 17 17 17
19 19 19 19 19 19 19 19 19 19 19 18 18 18 18 18 18 18 18 18 18 18 18 18 18 18 18 17 17 17 17 17 17 17 17 17 17 17 17 17 17 17 16
20 20 19 19 19 19 19 19 19 19 18 18 18 18 18 18 18 18 18 18 18 18 18 18 18 18 17 17 17 17 17 17 17 17 17 17 17 17 17 17 17 17 16
20 20 20 19 19 19 19 19 18 18 18 18 18 18 18 18 18 18 18 18 18 18 18 18 18 17 17 17 17 17 17 17 17 17 17 17 17 17 17 16 16 16 16
20 20 20 19 19 19 19 19 19 18 18 18 18 18 18 18 18 18 18 18 18 18 18 18 18 18 17 17 17 17 17 17 17 17 17 17 17 17 16 16 16 16 16
20 20 20 20 19 19 19 19 19 18 18 18 18 18 18 18 18 18 18 18 18 18 18 18 18 17 17 17 17 17 17 17 17 16 16 16 16 16 16 16 16 16 16
20 20 20 20 19 19 19 19 19 19 18 18 18 18 18 18 18 18 18 18 18 18 17 18 17 17 17 17 17 17 17 16 16 16 16 16 16 16 16 16 16 16 16
21 20 20 20 20 19 19 19 19 19 18 18 18 18 18 18 18 18 18 17 17 17 17 17 17 17 17 17 17 17 16 16 16 16 16 16 16 16 16 16 16 16 16
21 21 20 20 20 20 19 19 19 18 18 18 18 18 18 18 18 18 18 17 17 17 17 17 17 17 17 17 17 17 16 16 16 16 16 16 16 16 16 16 16 16 16
21 21 21 20 20 20 19 19 19 18 18 18 18 18 18 18 18 18 17 17 17 17 17 17 17 17 17 17 17 17 16 16 16 16 16 16 16 16 15 15 15 15 15
21 21 21 20 20 20 19 19 19 19 19 18 18 18 18 18 18 18 17 17 17 17 17 17 17 17 17 17 17 17 17 16 16 15 16 16 15 15 15 15 15 15 15
22 21 21 21 20 20 20 19 19 19 19 18 18 18 18 18 18 18 17 17 17 17 17 17 17 17 17 17 17 17 17 16 16 16 15 15 15 15 15 15 15 15 15
22 21 21 21 20 20 20 19 19 19 19 18 18 18 18 18 18 18 17 17 17 17 17 17 17 17 17 17 17 16 16 16 16 16 15 15 15 15 15 15 15 14 14
Wind_Speed
2 3 5 8 10 10 11 11 11 12 12 13 14 14 14 14 14 14 14 15 14 14 15 15 16 17 17 18 17 17 16 17 17 17 17 17 16 16 15 15 14 13 15
0 2 6 9 10 10 10 11 11 12 12 12 13 14 14 14 14 14 14 14 14 14 14 15 16 16 17 17 17 16 15 16 16 16 16 15 15 15 15 14 14 13 15
2 3 7 9 9 10 10 11 11 11 11 12 12 13 13 13 13 14 14 14 15 15 14 14 15 16 16 16 16 15 15 15 15 15 15 12 13 14 14 14 14 15 15
3 3 6 9 9 10 10 11 11 11 11 11 12 12 12 12 13 14 14 14 14 15 14 14 14 15 15 15 15 14 14 14 14 14 11 10 10 13 14 14 14 15 14
3 3 5 8 9 9 10 10 10 11 11 11 11 11 12 12 12 13 13 14 13 13 13 14 14 14 14 14 14 13 13 13 13 11 10 9 9 12 13 14 14 14 14
3 3 5 8 8 9 9 10 10 10 10 10 11 11 11 11 11 12 12 12 12 12 12 12 13 13 13 13 13 13 13 12 11 10 9 9 9 12 12 13 13 13 13
2 3 4 7 8 8 8 9 9 9 9 9 10 10 10 11 11 11 11 11 11 11 11 11 11 11 11 12 12 12 12 11 10 9 8 9 10 11 11 12 13 12 12
3 3 4 6 7 7 8 8 8 8 8 8 9 9 10 10 10 10 10 10 9 9 10 10 10 10 9 10 10 10 11 11 10 9 8 8 10 11 11 11 11 12 11
3 3 3 4 5 6 7 7 8 8 8 8 8 8 9 9 9 9 8 8 8 8 8 9 9 9 9 9 9 9 9 9 9 7 7 7 10 11 11 11 11 11 11
2 2 2 4 5 5 5 6 7 7 7 7 7 7 7 7 7 7 6 7 7 7 7 8 8 8 8 8 8 7 8 8 7 6 6 7 9 10 10 11 11 11 10
1 1 2 3 3 4 3 4 5 6 6 6 6 7 6 5 5 5 5 6 6 6 6 7 7 8 7 7 7 7 7 6 6 5 5 7 9 9 10 11 11 10 10
1 0 1 1 2 2 2 4 5 5 5 5 5 5 5 4 4 3 4 5 4 5 5 6 6 6 6 5 5 5 5 6 5 4 5 8 8 9 10 10 10 10 10
2 1 1 1 1 1 2 3 3 4 4 4 4 4 4 4 3 3 3 3 4 4 4 5 5 5 5 4 4 4 4 4 4 4 5 7 8 8 8 8 9 10 10
2 2 1 1 1 1 1 2 2 2 2 2 2 3 3 2 2 2 2 2 3 3 3 3 3 5 5 4 5 4 4 3 3 3 4 7 7 8 8 8 8 8 8
3 3 2 2 2 1 1 1 1 1 1 1 1 2 2 2 1 2 2 2 2 3 3 3 3 4 4 4 4 4 3 3 3 3 3 4 6 6 6 7 7 7 8
4 4 3 3 2 2 2 1 0 0 1 0 0 1 1 1 1 1 1 2 2 2 3 3 3 4 3 3 3 3 3 3 3 3 2 2 4 5 5 5 6 6 7
4 4 4 4 3 3 3 2 1 0 0 0 1 1 1 2 2 2 1 1 1 3 4 4 4 4 4 4 4 3 3 3 3 3 2 2 1 3 4 5 5 6 6
4 4 4 4 4 4 3 2 1 1 1 1 0 1 1 2 2 2 2 1 1 3 3 3 3 4 4 4 3 3 3 3 3 3 3 2 1 1 2 2 4 5 6
5 5 5 4 4 4 3 2 2 2 2 1 1 1 1 2 3 3 2 1 2 2 2 3 3 3 4 4 3 3 3 2 2 2 2 2 1 1 1 1 0 1 4
5 5 5 4 4 3 3 2 2 2 2 2 1 1 1 2 3 3 2 2 3 2 2 3 4 4 4 4 4 4 3 2 3 2 2 2 2 2 1 1 1 2 2
4 5 5 5 4 4 2 2 2 1 1 1 1 1 1 2 3 3 2 2 2 2 2 3 4 4 3 3 4 3 3 3 2 1 2 2 2 2 2 1 1 1 1
5 6 5 5 5 4 3 2 2 2 1 1 1 2 2 1 2 2 2 2 2 2 2 3 4 3 2 2 2 2 1 2 2 2 1 1 1 2 2 1 1 1 1
6 6 7 6 5 4 4 3 3 3 2 2 1 1 1 1 1 2 2 2 2 2 2 2 3 3 2 1 1 2 2 2 0 2 2 2 1 1 2 2 2 1 1
7 6 5 5 5 4 5 4 4 3 2 1 1 0 1 2 1 1 2 3 2 2 2 3 3 2 3 2 1 0 1 2 2 0 1 2 2 2 2 2 3 2 2
6 6 5 5 4 4 5 5 5 3 2 1 1 1 1 2 2 1 1 1 2 2 2 2 2 2 2 2 2 1 1 1 1 2 1 1 2 2 2 2 2 2 2
5 5 6 5 4 4 5 5 5 5 3 2 1 0 1 1 1 1 1 1 1 1 2 2 2 3 2 2 2 2 2 2 2 2 2 1 1 1 2 3 3 3 3
Wind_Direction
345 340 64 84 88 86 84 85 86 88 92 97 102 107 108 108 107 105 104 106 106 105 105 107 110 114 118 121 122 124 129 133 133 135 135 136 136 135 133 131 130 128 127
90 31 84 90 91 89 85 84 87 91 95 99 103 107 108 108 108 106 104 105 107 107 107 108 112 115 117 120 123 122 125 132 133 135 136 137 137 137 136 135 133 132 132
73 66 89 90 91 90 88 86 87 90 94 99 103 108 109 109 109 109 106 106 109 107 106 108 111 115 116 119 120 121 124 128 133 135 134 134 139 142 140 138 137 134 133
82 68 93 93 91 91 88 88 88 90 94 98 106 110 110 110 110 110 109 108 109 107 105 106 110 112 115 118 120 122 125 128 132 133 128 132 138 141 138 139 140 136 134
75 74 99 96 93 91 88 89 89 88 95 101 107 110 110 109 110 111 109 108 109 108 107 107 109 111 115 117 119 122 126 125 124 123 123 127 133 141 141 142 140 136 137
70 73 98 98 94 91 89 89 88 87 93 102 108 110 110 109 109 110 112 110 110 110 110 112 113 115 117 117 118 121 125 123 118 118 121 126 132 139 141 142 142 140 141
69 65 96 100 96 93 90 88 87 88 91 104 111 111 111 111 111 110 109 110 110 110 112 117 119 120 123 123 124 125 124 124 119 121 123 130 139 144 143 144 143 143 143
74 59 82 100 99 95 90 87 87 89 93 104 116 112 111 111 110 108 108 109 108 107 111 116 120 122 120 122 124 127 128 128 127 127 128 138 149 149 146 144 145 148 150
66 58 52 73 89 93 92 87 88 87 89 96 106 109 110 112 110 108 105 105 105 108 113 117 118 122 121 119 119 122 126 127 123 128 139 149 158 156 156 153 152 155 158
61 48 47 56 66 70 74 84 88 89 89 92 101 110 111 111 106 105 103 105 106 106 109 116 121 125 125 121 120 122 126 121 124 132 141 157 162 165 165 162 161 165 167
83 34 43 54 60 62 64 71 71 78 79 81 85 96 90 78 79 87 104 106 103 99 101 107 122 124 121 121 120 118 119 125 129 143 156 166 170 174 172 171 171 174 175
208 261 64 66 67 49 56 51 42 46 52 59 63 68 69 71 70 82 93 99 94 91 92 96 108 111 104 107 112 110 117 133 140 159 171 173 176 180 182 178 178 180 182
202 195 141 136 90 65 52 54 40 31 38 45 43 48 62 59 59 56 52 61 59 67 62 72 81 89 91 96 97 103 124 133 146 163 175 176 180 181 179 178 183 186 186
172 202 187 152 124 93 69 46 45 35 31 29 29 49 65 61 53 51 55 52 49 52 62 58 72 82 89 98 110 118 129 140 147 157 174 182 186 188 188 182 183 185 188
177 193 192 173 178 164 103 35 75 46 32 8 20 30 64 85 74 66 73 61 52 56 75 72 79 86 91 101 114 124 128 138 150 155 171 185 187 194 196 189 191 192 191
186 191 185 182 186 161 145 131 104 6 307 3 6 47 102 131 117 94 72 64 59 56 75 86 89 95 92 93 93 106 121 130 138 132 150 186 195 195 202 195 195 199 193
185 183 179 179 163 153 158 168 137 172 153 8 324 76 132 144 141 135 104 76 67 73 82 87 86 89 94 89 83 89 97 102 95 99 105 109 165 189 192 191 192 195 194
172 171 177 173 155 159 154 143 117 108 119 114 55 83 116 141 146 131 109 94 82 86 95 100 95 89 85 83 77 70 78 80 80 87 93 92 106 159 191 193 204 206 201
175 169 165 162 156 161 145 125 107 83 80 83 87 108 129 134 138 130 117 113 100 95 91 108 99 106 102 93 87 73 69 67 61 77 79 89 99 109 141 271 293 221 211
172 165 163 158 157 144 120 102 85 70 58 53 57 72 126 136 130 132 123 107 109 98 92 101 104 99 107 104 93 78 64 61 57 53 52 59 57 55 57 28 348 313 297
166 166 169 166 171 149 134 134 125 134 86 56 52 48 79 125 132 131 123 114 117 120 127 122 115 111 111 108 96 73 48 48 50 39 49 53 43 39 44 41 28 353 335
182 182 176 176 174 169 154 139 138 135 132 133 37 37 39 84 123 143 135 149 143 132 119 124 127 128 149 135 117 111 60 20 18 31 53 63 27 42 42 27 28 23 358
190 193 192 185 179 173 151 116 101 77 55 44 32 15 11 60 99 132 147 150 152 155 157 159 153 150 166 178 132 143 148 198 320 21 37 39 35 44 27 23 22 22 18
193 184 179 177 175 167 153 152 153 156 167 203 200 340 2 32 64 115 145 155 161 166 169 183 176 163 151 173 170 125 157 154 160 129 22 32 38 37 32 33 29 29 38
179 171 170 164 166 161 160 165 161 159 168 149 108 69 360 14 34 57 104 139 164 176 183 177 166 167 170 172 169 153 121 108 144 165 196 23 41 35 38 40 39 39 41
166 162 158 154 164 159 157 159 164 165 160 144 138 122 1 6 10 26 77 108 139 164 181 186 178 173 178 171 170 168 166 165 177 172 186 182 76 31 38 40 39 39 48
Height
1504 1503 1503 1503 1503 1502 1502 1501 1500 1500 1500 1500 1501 1502 1503 1503 1504 1505 1506 1507 1508 1508 1509 1509 1510 1512 1514 1516 1519 1522 1524 1527 1529 1532 1535 1537 1540 1542 1544 1546 1548 1550 1552
1506 1505 1505 1505 1504 1504 1504 1503 1502 1502 1502 1503 1503 1504 1505 1506 1507 1508 1509 1510 1510 1511 1512 1513 1514 1515 1517 1520 1522 1524 1527 1529 1531 1534 1537 1539 1541 1543 1545 1547 1549 1551 1553
1507 1507 1507 1507 1507 1506 1506 1505 1504 1504 1505 1505 1506 1507 1508 1509 1510 1511 1511 1512 1513 1514 1515 1516 1517 1519 1520 1523 1525 1527 1529 1531 1534 1536 1538 1540 1542 1544 1546 1548 1550 1552 1554
1508 1508 1508 1508 1508 1508 1508 1507 1507 1507 1507 1507 1508 1509 1510 1511 1512 1513 1514 1515 1516 1517 1518 1519 1520 1521 1523 1525 1527 1529 1532 1534 1536 1538 1540 1542 1544 1545 1547 1549 1551 1553 1555
1510 1510 1510 1510 1510 1510 1510 1509 1509 1509 1509 1509 1510 1511 1512 1513 1515 1516 1517 1518 1519 1520 1521 1522 1523 1524 1526 1528 1530 1532 1534 1536 1538 1540 1541 1543 1545 1546 1548 1550 1552 1554 1556
1512 1512 1512 1512 1512 1512 1512 1512 1512 1512 1512 1512 1512 1513 1515 1516 1517 1518 1520 1521 1522 1523 1524 1525 1527 1528 1529 1531 1533 1535 1537 1538 1540 1542 1543 1545 1546 1547 1549 1551 1553 1555 1557
1514 1514 1514 1514 1515 1514 1514 1514 1514 1514 1514 1514 1515 1516 1517 1518 1520 1521 1522 1524 1525 1526 1527 1529 1530 1531 1533 1534 1536 1537 1539 1540 1542 1543 1545 1546 1548 1550 1551 1552 1554 1556 1558
1516 1516 1516 1517 1517 1517 1517 1517 1516 1516 1516 1516 1517 1518 1520 1521 1522 1523 1525 1526 1528 1529 1530 1531 1532 1534 1535 1537 1538 1540 1541 1542 1544 1545 1546 1548 1549 1551 1552 1553 1555 1556 1558
1518 1518 1519 1519 1519 1519 1519 1519 1519 1519 1519 1519 1519 1521 1522 1523 1525 1526 1528 1529 1530 1531 1533 1534 1535 1536 1538 1539 1540 1542 1543 1544 1545 1547 1548 1549 1551 1552 1553 1554 1556 1557 1559
1520 1521 1521 1521 1522 1522 1522 1522 1522 1522 1522 1522 1522 1523 1525 1526 1528 1529 1531 1532 1533 1534 1535 1536 1537 1539 1540 1541 1542 1543 1544 1546 1547 1548 1549 1550 1551 1552 1554 1555 1556 1557 1558
1522 1523 1523 1524 1524 1525 1525 1525 1525 1525 1525 1525 1526 1526 1527 1529 1531 1532 1533 1534 1535 1536 1537 1538 1539 1540 1542 1543 1544 1545 1546 1547 1548 1549 1550 1551 1552 1553 1554 1555 1556 1557 1558
1524 1525 1526 1526 1527 1527 1528 1528 1528 1528 1528 1529 1529 1530 1530 1532 1533 1534 1535 1536 1537 1538 1539 1540 1541 1542 1543 1544 1545 1546 1547 1548 1549 1550 1551 1551 1552 1553 1554 1555 1556 1557 1558
1527 1528 1528 1529 1530 1530 1530 1531 1531 1531 1532 1532 1533 1533 1534 1535 1536 1537 1538 1539 1540 1540 1541 1542 1543 1544 1544 1545 1546 1547 1548 1549 1550 1550 1551 1552 1553 1553 1554 1555 1556 1557 1558
1529 1530 1531 1531 1532 1533 1533 1534 1534 1534 1535 1535 1536 1536 1537 1537 1538 1539 1540 1541 1542 1542 1543 1543 1544 1545 1546 1547 1547 1548 1549 1550 1551 1551 1551 1552 1553 1553 1554 1555 1555 1556 1557
1530 1532 1533 1533 1534 1535 1535 1536 1536 1536 1537 1538 1538 1539 1539 1540 1540 1541 1542 1543 1543 1544 1544 1545 1546 1546 1547 1548 1548 1549 1550 1551 1551 1552 1552 1553 1553 1553 1554 1555 1555 1556 1557
1532 1533 1534 1535 1536 1537 1537 1538 1538 1539 1539 1540 1540 1541 1541 1542 1542 1543 1544 1544 1545 1546 1546 1546 1547 1547 1548 1548 1549 1550 1550 1551 1552 1552 1552 1553 1553 1553 1553 1554 1554 1555 1556
1533 1535 1536 1536 1537 1538 1539 1540 1540 1541 1541 1542 1542 1543 1543 1543 1544 1544 1545 1546 1546 1547 1547 1547 1548 1548 1549 1549 1550 1551 1551 1552 1552 1552 1552 1553 1553 1553 1553 1553 1553 1554 1554
1534 1536 1537 1538 1538 1539 1540 1541 1542 1542 1543 1543 1544 1544 1544 1545 1545 1546 1546 1547 1547 1548 1548 1548 1549 1549 1549 1550 1550 1551 1551 1552 1552 1552 1553 1553 1552 1553 1553 1553 1553 1553 1553
1535 1536 1538 1539 1539 1540 1541 1542 1543 1544 1544 1544 1545 1545 1545 1546 1546 1546 1547 1547 1548 1548 1549 1549 1549 1549 1550 1550 1551 1551 1551 1552 1552 1553 1553 1553 1553 1553 1553 1553 1553 1553 1553
1535 1537 1538 1539 1540 1541 1542 1543 1543 1544 1544 1545 1545 1546 1546 1546 1547 1547 1547 1548 1548 1549 1549 1549 1550 1550 1550 1551 1551 1551 1552 1552 1552 1553 1553 1553 1553 1553 1553 1553 1553 1553 1553
1535 1536 1538 1539 1540 1541 1542 1543 1543 1544 1544 1545 1545 1546 1546 1547 1547 1548 1548 1548 1548 1549 1549 1549 1550 1550 1550 1551 1551 1552 1552 1552 1552 1553 1553 1553 1553 1553 1553 1553 1552 1552 1552
1534 1536 1537 1538 1540 1541 1542 1543 1544 1544 1544 1545 1545 1546 1546 1547 1547 1548 1548 1548 1548 1549 1549 1549 1550 1550 1550 1551 1551 1551 1552 1554 1552 1552 1552 1552 1553 1552 1552 1552 1552 1552 1551
1533 1535 1536 1538 1539 1540 1542 1543 1543 1544 1544 1545 1545 1546 1546 1546 1547 1547 1547 1548 1548 1548 1549 1549 1549 1549 1550 1550 1551 1552 1551 1552 1552 1553 1552 1552 1552 1552 1552 1551 1551 1551 1551
1531 1534 1536 1537 1539 1540 1541 1542 1543 1543 1544 1544 1545 1545 1546 1546 1546 1547 1547 1547 1547 1547 1548 1548 1548 1549 1549 1549 1550 1550 1551 1551 1551 1552 1552 1552 1552 1551 1551 1550 1550 1550 1550
1530 1533 1535 1536 1538 1539 1540 1541 1542 1543 1543 1544 1544 1545 1545 1545 1546 1546 1546 1546 1546 1546 1547 1547 1547 1548 1548 1548 1549 1549 1550 1550 1550 1551 1551 1551 1551 1551 1550 1550 1550 1549 1549
1529 1531 1533 1535 1536 1538 1539 1540 1541 1541 1542 1543 1544 1544 1544 1545 1545 1545 1545 1545 1545 1545 1546 1546 1546 1547 1547 1547 1548 1548 1548 1548 1548 1549 1549 1549 1550 1550 1550 1549 1549 1548 1548